User: anonymous   Login
Location: Unspecified
(0.0000°N, 0.0000°E)
Time: 19:03:49
(UTC+00:00)
Language:

Kosmos-1553 - Orbit

View from above orbital plane
View from above orbital plane
View from above satellite
View from above satellite

Ground track
Ground track

The orbit data is extracted from the following two-line orbital elements,

1 14973U 84046A   17084.90331993 +.00000042 +00000-0 +28624-4 0  9995
2 14973 082.9356 232.8448 0031312 321.8107 147.8925 13.75302966648424
Epoch (UTC): 25 March 2017 21:40:46
Eccentricity: 0.0031312
inclination: 82.9356°
perigee height: 957 km
apogee height: 1003 km
right ascension of ascending node: 232.8448°
argument of perigee: 321.8107°
revolutions per day: 13.75302966
mean anomaly at epoch: 147.8925°
orbit number at epoch: 64842

The dashed part of the orbit path shows where the satellite is in the earth's shadow,  

DLR